Dewpoint
46 47 50 55 60 60 62 64 66 65 67 68 69 68 67 68 70 72 73 75 76 76 76 76 76 76 75 74 74 75 75 75 75 74 73 73 73 73 73 74 75 75 72 72 73 72 73 74 72 72 73 75 75 75 76 77 77 75 76 76 76 75 74
44 39 44 50 57 61 63 65 66 66 67 68 69 69 68 69 70 71 73 75 76 76 77 76 76 75 75 74 74 75 75 75 76 76 75 75 75 74 73 75 75 75 74 72 72 74 74 73 72 72 73 74 75 76 75 76 77 77 75 76 75 75 75
43 41 43 48 54 60 64 64 66 66 67 67 68 68 68 71 71 72 73 74 76 77 77 77 76 75 75 75 74 75 75 75 76 76 75 73 74 73 74 75 75 74 74 73 73 72 73 73 75 74 73 73 74 75 75 75 76 76 75 76 75 75 75
47 41 42 48 56 62 63 64 66 66 66 67 68 69 69 72 71 72 73 74 75 76 76 76 76 74 74 75 75 75 75 76 76 75 74 73 74 75 74 74 75 74 74 73 72 71 71 73 73 75 76 75 74 74 74 74 74 75 75 75 75 75 75
43 45 43 46 51 60 62 63 65 67 65 66 68 70 70 70 70 71 72 73 73 75 75 75 73 74 74 75 74 74 75 75 75 75 74 74 74 75 75 73 73 73 73 73 74 73 74 74 73 75 75 76 75 74 74 74 74 75 75 75 75 75 73
34 42 44 42 46 53 61 62 63 64 65 65 67 68 69 69 69 69 71 73 73 74 75 75 74 74 74 74 73 73 75 75 76 76 75 74 75 74 74 74 73 74 72 73 73 73 73 73 73 74 74 74 73 72 72 74 73 73 75 75 74 73 72
39 43 42 43 48 53 60 62 62 63 65 65 66 68 68 68 69 69 69 71 71 73 73 73 73 73 75 74 74 75 75 74 75 74 74 73 74 75 75 75 75 73 73 74 74 73 73 73 74 74 74 73 75 72 73 75 74 74 75 75 75 74 74
42 46 49 47 48 52 58 62 62 63 64 65 65 66 66 67 67 67 68 69 69 70 71 71 72 74 75 75 74 73 74 74 74 74 74 73 74 75 74 75 75 75 75 73 74 74 73 74 73 74 74 73 75 75 73 75 76 73 74 75 75 74 73
38 47 48 47 50 49 53 61 62 62 65 66 65 66 67 67 67 67 68 68 69 68 70 70 70 72 75 74 74 74 74 74 74 74 74 73 71 72 72 73 75 75 74 73 72 74 74 73 74 75 75 75 75 76 74 75 75 74 75 75 75 74 73
40 46 50 47 49 47 54 57 63 65 66 67 67 67 67 67 67 67 67 67 67 67 67 67 69 70 73 74 73 73 74 74 74 71 71 71 71 71 71 70 73 75 74 73 71 72 74 74 74 75 76 75 75 75 75 75 75 75 75 75 75 75 75
41 54 56 53 53 54 56 58 63 67 67 71 70 65 67 67 67 66 66 66 65 66 66 67 68 68 72 72 72 72 73 73 71 72 71 70 69 69 69 69 71 73 73 73 71 69 73 75 75 76 76 75 74 75 75 75 75 76 75 74 75 75 75
53 53 58 56 54 52 55 64 67 70 70 71 67 65 68 69 66 65 65 66 65 65 65 66 65 67 70 71 71 72 72 72 72 71 71 70 69 69 68 69 69 70 72 72 71 70 69 73 74 74 76 76 75 75 76 76 76 77 76 73 74 75 75
46 57 60 56 58 57 61 64 66 68 70 66 64 64 65 65 65 64 67 67 65 65 65 67 67 68 69 70 70 72 72 72 72 72 71 71 70 69 69 68 67 67 69 72 72 71 68 69 74 75 75 76 76 75 76 76 76 77 77 75 75 75 75
57 53 56 58 60 61 61 64 65 67 68 65 62 64 64 64 64 65 66 65 65 64 64 65 67 68 69 71 72 73 71 71 72 74 73 72 75 72 70 68 68 69 70 72 72 71 70 67 71 73 74 76 76 76 76 76 76 77 77 76 74 74 75
34 41 51 52 60 64 64 62 66 66 66 65 62 63 63 63 63 66 67 65 66 63 63 66 67 68 68 71 72 74 73 74 73 74 75 75 76 75 73 71 71 71 71 72 72 71 70 69 68 72 74 75 76 77 76 75 76 76 77 77 75 74 74
25 30 35 47 57 60 65 65 66 67 68 69 65 65 62 64 66 63 64 64 63 65 63 65 67 70 69 69 72 74 74 75 76 76 76 75 76 77 75 72 72 70 70 71 71 73 73 73 71 69 73 74 76 76 76 76 76 72 67 70 76 75 74
30 31 37 44 54 55 63 65 67 69 69 70 68 66 65 65 65 63 60 62 62 64 64 63 68 67 68 70 72 74 75 76 76 76 76 76 76 76 76 75 73 74 75 74 73 74 76 74 71 69 70 73 74 75 76 76 75 67 65 66 68 75 75
33 37 36 35 39 45 53 60 65 69 69 66 67 67 65 67 64 62 61 60 61 61 62 62 64 66 71 71 74 76 76 75 76 77 77 77 76 77 77 75 74 75 75 73 72 76 74 73 73 74 71 72 73 74 75 76 69 64 64 65 66 69 76
35 35 38 44 44 44 35 39 54 67 61 60 64 64 63 64 61 64 64 64 63 63 62 61 62 70 73 71 72 76 76 77 76 77 77 77 77 77 77 77 76 75 74 73 74 74 75 76 74 74 73 72 74 74 75 75 67 64 63 64 65 66 70
32 34 36 37 39 39 44 46 47 53 47 57 59 57 62 63 60 62 62 62 63 62 65 66 65 67 69 72 74 75 76 77 77 76 77 77 77 77 77 77 76 74 73 73 75 75 75 74 75 75 76 75 75 75 75 75 66 62 62 63 64 65 68
44 43 42 42 43 39 55 62 64 62 61 51 48 56 59 61 61 61 61 63 62 65 70 67 67 67 69 72 73 74 75 77 77 77 77 78 78 77 77 77 77 75 74 73 74 74 75 75 75 75 76 74 73 74 74 74 64 61 61 61 62 63 65
34 36 37 38 47 64 67 64 64 60 62 64 58 51 52 54 58 58 58 60 61 62 63 66 69 67 69 72 72 73 75 76 77 77 77 77 77 77 77 77 77 76 75 75 74 75 74 76 75 75 75 75 75 73 73 73 62 60 60 60 61 62 71
29 34 36 48 53 57 68 69 67 66 67 66 61 53 50 49 51 56 57 59 59 62 61 64 68 67 70 71 71 73 75 76 77 77 77 77 77 77 76 77 77 77 76 74 74 74 74 75 75 76 75 75 75 75 74 73 66 58 59 59 60 62 73
26 41 52 59 65 64 66 66 69 70 69 68 65 63 59 53 53 57 61 60 59 61 61 62 67 69 72 72 73 74 76 77 77 77 77 77 77 77 76 76 77 77 76 75 74 73 74 75 75 75 75 75 74 74 74 73 68 56 57 58 58 63 73
61 62 62 62 62 63 67 72 73 71 69 68 66 67 66 62 58 54 61 63 58 60 62 64 68 70 71 72 73 76 76 77 77 77 77 77 77 77 77 77 77 77 77 75 75 74 75 74 74 75 75 74 74 69 72 73 68 56 57 57 57 64 74
63 62 62 60 63 70 70 71 72 72 69 67 68 67 68 64 62 65 63 60 58 59 61 65 69 72 69 70 74 75 76 77 77 77 76 77 78 78 77 77 77 77 77 76 75 74 73 73 73 74 74 73 73 73 73 73 75 65 55 56 56 59 73
63 63 65 66 67 71 68 68 70 70 68 71 73 71 68 63 63 64 66 66 65 63 61 65 69 71 73 73 71 73 76 77 77 77 77 77 77 77 77 77 76 76 76 74 74 74 74 74 73 73 74 74 75 75 74 74 74 71 54 55 55 57 63
64 64 63 68 70 70 68 67 72 70 68 71 69 68 66 68 68 67 68 67 65 65 62 67 73 71 72 74 74 74 77 77 78 77 76 76 77 77 76 76 76 75 75 74 74 75 75 75 75 74 74 74 74 74 75 72 68 77 55 55 54 55 57
66 65 66 67 68 68 66 69 70 70 70 69 70 72 71 66 68 68 68 67 68 66 67 68 69 72 73 75 75 76 77 78 77 76 74 75 76 76 76 76 76 76 76 76 76 76 75 75 75 74 73 73 73 73 74 75 75 65 65 54 54 54 55
66 66 65 65 66 67 66 70 70 70 71 70 72 74 75 73 69 69 69 69 71 70 69 70 72 74 74 75 75 75 77 77 75 75 74 75 75 76 77 76 76 76 76 77 76 74 74 74 74 73 72 72 71 70 70 76 74 67 62 61 53 54 54
65 65 64 66 65 67 68 68 69 69 70 70 72 74 76 75 71 71 71 76 76 73 71 70 71 73 74 74 74 75 75 76 76 75 75 74 75 76 76 76 76 75 76 76 75 74 74 74 73 72 72 72 72 71 70 71 75 72 68 59 54 54 53
64 65 65 65 67 67 67 67 68 68 69 70 71 72 74 74 75 75 75 75 76 75 74 74 74 75 75 75 75 74 73 75 75 74 74 74 74 75 75 75 74 74 75 75 74 75 74 73 71 71 71 70 71 71 71 74 72 74 73 62 57 55 54
66 66 66 66 68 68 68 67 67 68 69 70 71 70 72 73 72 73 73 74 73 73 76 75 74 74 75 74 74 75 75 75 73 72 72 74 72 73 74 74 74 74 74 73 73 73 73 73 72 71 69 69 70 71 72 72 72 72 71 74 68 65 62
66 66 67 68 68 68 68 68 69 69 70 70 71 71 71 71 71 72 73 73 74 75 75 75 74 73 74 73 73 73 74 73 73 72 71 73 73 71 72 73 72 72 75 73 73 73 72 72 71 70 70 69 69 71 70 70 71 71 71 70 71 69 68
66 66 67 67 68 68 68 68 68 69 69 69 70 70 71 71 71 72 74 74 75 76 75 75 74 75 74 73 73 74 74 74 74 72 72 72 74 73 72 71 70 75 73 74 74 73 72 72 70 70 69 69 72 74 74 73 71 72 59 66 57 71 69
66 66 66 66 67 67 67 68 68 68 68 69 69 69 69 70 70 70 71 74 75 75 75 76 74 74 73 73 73 73 72 73 72 72 71 70 70 71 75 64 60 70 75 74 61 57 60 65 73 73 72 73 74 76 74 72 72 57 53 52 51 53 53
66 66 65 66 66 66 67 68 68 68 68 68 68 68 69 69 69 70 70 70 74 74 75 74 74 73 73 74 74 73 72 70 71 72 73 72 69 70 73 72 70 52 54 60 62 56 50 49 50 51 54 63 59 61 59 56 51 48 46 46 46 45 48
65 65 65 66 66 66 66 67 67 67 68 68 68 68 69 68 68 69 68 69 69 71 74 73 73 72 72 72 73 75 75 73 74 73 72 71 72 75 73 72 72 66 56 53 53 52 50 50 48 48 47 48 53 60 62 56 50 46 45 45 45 44 44